Notices

What's New in latest Release from April 7th, 2021:

- Updated Glossary, including Speed of Maximum Gust, and Total Hourly Precipitation

- Updated national and regional climate services offices contacts and prices information

- Addition of station inventory lists for 1981-2010, 1971-2000, and 1961-1990 Normals.

If you haven't already, please take our survey and provide feedback about our website: https://eccc.sondage-survey.ca/f/LanguageSelection.aspx?s=442ca660-fcf1-47c0-95a9-59707d6fd709

Hourly Data Report for December 18, 2020

FORT GOOD HOPE CS
NORTHWEST TERRITORIES
Current Station Operator: ECCC - MSC

66°14'32.044" N
128°38'39.081" W
81.70 m
2201450
71491
ZGH

Download Data

Hourly Data (December 2020)
Hourly Data Report for December 18, 2020
TIME
LST
Temp Definition
°C
Dew Point Definition
°C
Rel Hum Definition
%
Precip. Amount Definition
mm

Wind Dir Definition
10's deg

Wind Spd Definition
km/h
Visibility Definition
km
Stn Press Definition
kPa
Hmdx Definition


Wind Chill Definition


Weather Definition


00:00 -46.7 -51.0 62 0.0 0 1   101.19   -48 LegendNANA
01:00 -46.9 -51.2 62 0.0 0 1   101.15   -48 LegendNANA
02:00 -46.9 -51.2 62 0.0 11 4   101.05   -53 LegendNANA
03:00 -46.8 -51.1 62 0.0 6 3   100.98   -52 LegendNANA
04:00 -46.9 -51.2 62 0.0 4 1   100.90   -48 LegendNANA
05:00 -46.8 -51.1 62 0.0   0   100.82     LegendNANA
06:00 -46.4 -50.7 62 0.0   0   100.74     LegendNANA
07:00 -46.6 -50.9 62 0.0   0   100.63     LegendNANA
08:00 -46.4 -50.7 62 0.0 5 2   100.52   -50 LegendNANA
09:00 -46.3 -50.6 62 0.0   0   100.46     LegendNANA
10:00 -46.1 -50.4 62 0.0 0 1   100.42   -48 LegendNANA
11:00 -46.5 -50.8 62 0.0   0   100.34     LegendNANA
12:00 -45.6 -49.9 62 0.0 20 3   100.29   -50 LegendNANA
13:00 -45.3 -49.6 62 0.0 24 1   100.25   -47 LegendNANA
14:00 -45.5 -49.8 62 0.0   0   100.19     LegendNANA
15:00 -45.3 -49.5 63 0.0 20 4   100.12   -51 LegendNANA
16:00 -45.8 -50.1 62 0.0 19 6   100.05   -55 LegendNANA
17:00 -46.4 -50.7 62 0.0 18 3   100.02   -51 LegendNANA
18:00 -46.4 -50.7 62 0.0 19 7   99.98   -56 LegendNANA
19:00 -46.3 -50.6 62 0.0 20 5   99.96   -54 LegendNANA
20:00 -46.7 -51.0 62 0.0 19 5   99.94   -55 LegendNANA
21:00 -46.4 -50.7 62 0.0 21 6   99.91   -55 LegendNANA
22:00 -46.9 -51.2 61 0.0 17 2   99.91   -50 LegendNANA
23:00 -47.8 -52.1 61 0.0 11 5   99.90   -56 LegendNANA

Notes on Data Quality.

Legend

  • E = Estimated
  • M = Missing
  • NA = Not Available*
  • [empty] = Indicates an unobserved value
Date modified: